STARLINK-31423, 59242

Orbit data source: Space-Track

STARLINK-31423, 59242 is a payload satellite owned by SpaceX/Seattle (US) in LEO that was launched on Sat, 16 Mar 2024 UTC via an FALCON 9 launch vehicle from the Air Force Eastern Test Range (AFETR). Payload-class satellites include a variety of spacecraft equipped with specific instruments for various scientific and technological missions. These include communications satellites like Starlink; space stations such as the ISS; scientific satellites like the Hubble; Earth observation satellites from companies like Planet Labs, Umbra, and HawkEye 360; GPS; miniature CubeSats for education and research; and military/defense satellites.

Loading next visibility...
Identifier
59242, 2024-049M
Orbit
LEO
Country
Flag of USUS
Related business
Manufacturer
SpaceX/Seattle
Mission
Operational Commercial Communications
Bus & Motor
STARLINK V2M, Unknown motor
Mass
730 kg wet, ~700 kg dry
Launch date (UTC)
2024-03-16 (2 years ago)
Launch vehicle
FALCON 9
Launch site
Air Force Eastern Test Range (AFETR)
Object type
Payload
Rocket body
Debris
Shape & HBR
Box + 2 Pan, 17.7 m
Radar Cross Section
33.884 m², Large (>1 m²)

Expand to show TLE details & history
Last TLE update: 2 days ago

TLE from 2 days ago
0 STARLINK-31423
1 59242U 24049M   26171.34977043 -.00000643  00000-0 -13840-4 0  9990
2 59242  43.0024 284.0191 0001311 277.9572  82.1130 15.27575575128103
Epoch: 2026-06-20T08:23Z
TLE epoch observation values (Epoch: 2026-06-20T08:23:40.165Z)
Latitude
-0.00006°
Longitude
-110.46398°
Altitude
482.715 km
Speed
7.626 km/s
True Right ascension
18h 56m 04s
True Declination
0° 00' 00"
Sunlit
Object was in full shadow at epoch
Visualization orbit readout
Latitude
Unknown
Longitude
Unknown
Altitude
Unknown
Speed
Unknown
Apparent Right ascension
Unknown
Apparent Declination
Unknown
Sunlit
N/A
Visualization observer readout
Local Sidereal Time
21:33:02
Azimuth
Unknown
Elevation
Unknown
Doppler factor
Unknown
Orbital elements
Apogee altitude
485.907 km
Perigee altitude
484.107 km
Semi-major axis
6,863.144 km
Eccentricity
0.00013
Inclination
43.0024°
RAAN
284.0191°
Arg. of periapsis
277.9572°
True anomaly
82.12788°
Mean anomaly
82.113°
Eccentric anomaly
82.12044°
Mean motion
3.81732 °/min
Orbital period
94.31 mins
BSTAR
-0.00001384
Loading maneuver chart data...
Computing Atmospheric mass density...
Loading historical data...
Loading historical data...
Loading historical data...
Loading historical data...
Loading historical data...
Loading historical data...
Loading historical data...

Documentation

Showing up to 5 results
|